Brooksville, FL

3:35 PM EST on January 23, 2018 (GMT -0500)
Hernando County

Weather History for KBKV - May, 2014

Change the Weather History Date:

Sunday, May 25, 2014

  Actual Average Record
Temperature  
Mean Temperature 81 °F -  
Max Temperature 95 °F 87 °F 97 °F (2012)
Min Temperature 69 °F 61 °F 55 °F (2002)
Cooling Degree Days 16    
Growing Degree Days 31 (Base 50)    
Moisture  
Dew Point 68 °F    
Average Humidity 83    
Maximum Humidity 100    
Minimum Humidity 37    
Precipitation  
Precipitation 3.27 in - - ()
Sea Level Pressure  
Sea Level Pressure 30.07 in    
Wind  
Wind Speed 3 mph (ENE)    
Max Wind Speed 26 mph    
Max Gust Speed 44 mph    
Visibility 4 miles    
Events Fog , Rain , Thunderstorm    
Averages and records for this station are not official NWS values.
T = Trace of Precipitation, MM = Missing Value Source: NWS Daily Summary

Daily Weather History Graph

Daily Weather History Graph

Search for Another Location

Airport or City:

Trip Planner

Search our weather history database for the weather conditions in past years. The results will help you decide how hot, cold, wet, or windy it might be!

Date:

Astronomy

May. 25, 2014 Rise Set
Actual Time 6:34 AM EDT 8:19 PM EDT
Civil Twilight 6:08 AM EDT 8:45 PM EDT
Nautical Twilight 5:36 AM EDT 9:17 PM EDT
Astronomical Twilight 5:03 AM EDT 9:50 PM EDT
Moon 4:21 AM EDT (5/25) 5:32 PM EDT (5/25)
Length of Visible Light 14h 37m
Length of Day
13h 44m
Waning Crescent, 10% of the Moon is Illuminated
May 25
Waning Crescent
May 28
New
Jun 5
First Quarter
Jun 13
Full
Jun 19
Last Quarter

Hourly Weather History & Observations

Time (EDT) Temp. Heat Index Dew Point Humidity Pressure Visibility Wind Dir Wind Speed Gust Speed Precip Events Conditions
12:53 AM 75.0 °F - 72.0 °F 90% 30.07 in 7.0 mi Calm Calm - N/A   Clear
2:30 AM 73.0 °F - 71.1 °F 93% 30.05 in 2.5 mi Calm Calm - N/A   Clear
2:38 AM 73.0 °F - 71.1 °F 93% 30.05 in 4.0 mi Calm Calm - N/A   Clear
2:53 AM 73.0 °F - 72.0 °F 96% 30.04 in 4.0 mi Calm Calm - N/A   Clear
3:53 AM 72.0 °F - 71.1 °F 97% 30.04 in 3.0 mi Calm Calm - N/A   Clear
4:19 AM 72.0 °F - 70.0 °F 93% 30.05 in 1.8 mi Calm Calm - N/A   Clear
4:26 AM 71.1 °F - 70.0 °F 96% 30.05 in 1.5 mi Calm Calm - N/A   Clear
4:30 AM 71.1 °F - 70.0 °F 96% 30.05 in 2.0 mi Calm Calm - N/A   Clear
4:36 AM 72.0 °F - 70.0 °F 93% 30.05 in 1.5 mi Calm Calm - N/A   Clear
4:53 AM 71.1 °F - 69.1 °F 93% 30.05 in 0.5 mi Calm Calm - N/A Fog Fog
5:02 AM 71.1 °F - 70.0 °F 96% 30.05 in 2.0 mi Calm Calm - N/A   Clear
5:24 AM 72.0 °F - 70.0 °F 93% 30.05 in 4.0 mi Calm Calm - N/A   Clear
5:45 AM 71.1 °F - 70.0 °F 96% 30.05 in 2.5 mi Calm Calm - N/A   Clear
5:53 AM 71.1 °F - 70.0 °F 96% 30.05 in 2.5 mi Calm Calm - N/A   Clear
6:00 AM 71.1 °F - 70.0 °F 96% 30.05 in 3.0 mi Calm Calm - N/A   Clear
6:09 AM 71.1 °F - 69.1 °F 93% 30.06 in 2.0 mi Calm Calm - N/A   Clear
6:11 AM 70.0 °F - 69.1 °F 97% 30.06 in 1.2 mi Calm Calm - N/A   Partly Cloudy
6:13 AM 70.0 °F - 69.1 °F 97% 30.06 in 0.8 mi Calm Calm - N/A   Mist
6:21 AM 70.0 °F - 69.1 °F 97% 30.06 in 0.5 mi Calm Calm - N/A Fog Fog
6:27 AM 70.0 °F - 68.0 °F 93% 30.06 in 1.0 mi Calm Calm - N/A   Partly Cloudy
6:39 AM 69.1 °F - 68.0 °F 96% 30.06 in 0.8 mi Calm Calm - N/A   Mostly Cloudy
6:44 AM 70.0 °F - 68.0 °F 93% 30.06 in 2.0 mi Calm Calm - N/A   Scattered Clouds
6:50 AM 69.8 °F - 69.8 °F 100% 30.06 in 1.2 mi Calm Calm - N/A   Mostly Cloudy
6:53 AM 70.0 °F - 69.1 °F 97% 30.05 in 1.0 mi Calm Calm - N/A   Mostly Cloudy
7:00 AM 70.0 °F - 69.1 °F 97% 30.06 in 2.0 mi Calm Calm - N/A   Mostly Cloudy
7:08 AM 71.1 °F - 70.0 °F 96% 30.06 in 1.5 mi Calm Calm - N/A   Overcast
7:17 AM 71.1 °F - 70.0 °F 96% 30.06 in 0.2 mi Calm Calm - N/A Fog Fog
7:38 AM 72.0 °F - 71.1 °F 97% 30.07 in 1.8 mi Calm Calm - N/A   Mostly Cloudy
7:46 AM 73.0 °F - 71.1 °F 93% 30.07 in 2.0 mi Calm Calm - N/A   Scattered Clouds
7:53 AM 73.9 °F - 72.0 °F 93% 30.07 in 2.5 mi Calm Calm - N/A   Scattered Clouds
8:02 AM 73.9 °F - 72.0 °F 93% 30.08 in 4.0 mi East 3.5 mph - N/A   Clear
8:53 AM 79.0 °F - 72.0 °F 79% 30.09 in 9.0 mi SE 4.6 mph - N/A   Clear
9:53 AM 82.9 °F 87.5 °F 71.1 °F 67% 30.10 in 10.0 mi Variable 3.5 mph - N/A   Clear
11:53 AM 90.0 °F 93.6 °F 68.0 °F 48% 30.10 in 10.0 mi SE 5.8 mph - N/A   Clear
12:53 PM 91.9 °F 94.1 °F 64.9 °F 41% 30.09 in 10.0 mi SE 10.4 mph - N/A   Clear
1:53 PM 93.0 °F 95.0 °F 64.9 °F 39% 30.07 in 10.0 mi Variable 6.9 mph 16.1 mph N/A   Partly Cloudy
2:53 PM 91.9 °F 93.3 °F 64.0 °F 39% 30.06 in 10.0 mi East 5.8 mph - N/A   Clear
3:02 PM 91.9 °F 93.3 °F 64.0 °F 39% 30.05 in 10.0 mi SE 8.1 mph - N/A Thunderstorm Partly Cloudy
3:17 PM 93.9 °F 95.6 °F 64.0 °F 37% 30.04 in 10.0 mi Variable 5.8 mph - N/A   Partly Cloudy
3:27 PM 91.9 °F 93.3 °F 64.0 °F 39% 30.04 in 10.0 mi SE 9.2 mph - N/A Thunderstorm Partly Cloudy
3:53 PM 87.1 °F 95.4 °F 73.9 °F 65% 30.04 in 10.0 mi WSW 9.2 mph - N/A Thunderstorm Scattered Clouds
4:07 PM 86.0 °F 95.1 °F 75.0 °F 70% 30.06 in 10.0 mi West 13.8 mph 21.9 mph 0.00 in Rain , Thunderstorm Light Thunderstorms and Rain
4:38 PM 78.1 °F - 66.9 °F 68% 30.04 in 10.0 mi North 16.1 mph - 0.00 in Thunderstorm Thunderstorm
4:53 PM 72.0 °F - 66.0 °F 81% 30.11 in 3.0 mi NNW 18.4 mph 33.4 mph 0.17 in Rain , Thunderstorm Heavy Thunderstorms and Rain
4:56 PM 70.0 °F - 66.0 °F 87% 30.11 in 1.5 mi NW 12.7 mph 33.4 mph 0.15 in Rain , Thunderstorm Heavy Thunderstorms and Rain
5:00 PM 69.1 °F - 64.9 °F 87% 30.09 in 0.8 mi ESE 26.5 mph 38.0 mph 0.43 in Rain , Thunderstorm Heavy Thunderstorms and Rain
5:07 PM 69.1 °F - 66.9 °F 93% 30.15 in 0.5 mi North 21.9 mph 38.0 mph 0.92 in Fog , Rain , Thunderstorm Heavy Thunderstorms and Rain
5:23 PM 69.1 °F - 64.9 °F 87% 30.17 in 0.5 mi WSW 26.5 mph 43.7 mph 1.96 in Fog , Rain , Thunderstorm Heavy Thunderstorms and Rain
5:38 PM 71.1 °F - 64.9 °F 81% 30.13 in 0.8 mi WNW 12.7 mph - 2.73 in Rain , Thunderstorm Heavy Thunderstorms and Rain
5:44 PM 69.1 °F - 63.0 °F 81% 30.09 in 1.0 mi NNE 16.1 mph 21.9 mph 2.92 in Rain , Thunderstorm Heavy Thunderstorms and Rain
5:53 PM 70.0 °F - 59.0 °F 68% 30.07 in 1.2 mi NE 16.1 mph - 3.08 in Rain , Thunderstorm Heavy Thunderstorms and Rain
5:56 PM 70.0 °F - 59.0 °F 68% 30.07 in 2.0 mi NE 11.5 mph - 0.00 in Rain , Thunderstorm Thunderstorms and Rain
6:03 PM 70.0 °F - 60.1 °F 71% 30.08 in 6.0 mi ENE 8.1 mph - 0.01 in Rain , Thunderstorm Thunderstorms and Rain
6:33 PM 69.1 °F - 63.0 °F 81% 30.06 in 10.0 mi Variable 4.6 mph - 0.02 in Thunderstorm Mostly Cloudy
6:53 PM 69.1 °F - 64.0 °F 84% 30.06 in 10.0 mi Variable 5.8 mph - 0.02 in Rain Light Rain
7:53 PM 75.0 °F - 69.1 °F 82% 30.07 in 10.0 mi NNE 6.9 mph - 0.00 in   Clear
8:53 PM 73.0 °F - 66.0 °F 79% 30.10 in 10.0 mi East 4.6 mph - N/A   Clear
9:53 PM 70.0 °F - 64.9 °F 84% 30.13 in 10.0 mi ENE 6.9 mph - N/A   Clear
10:53 PM 70.0 °F - 64.9 °F 84% 30.14 in 10.0 mi East 6.9 mph - N/A   Clear
11:53 PM 70.0 °F - 66.0 °F 87% 30.14 in 10.0 mi NE 4.6 mph - N/A   Clear